Weather History for KTUS - July, 2013

Change the Weather History Date:

Friday, July 5, 2013

  Actual Average Record
Temperature  
Mean Temperature 86 °F 88 °F  
Max Temperature 100 °F 101 °F 111 °F (1983)
Min Temperature 72 °F 74 °F 54 °F (1912)
Degree Days  
Heating Degree Days 0 0  
Month to date heating degree days 0 0  
Since 1 June heating degree days 0 0  
Since 1 July heating degree days 0 0  
Cooling Degree Days 21 23  
Month to date cooling degree days 129 115  
Year to date cooling degree days 1581 1211  
Since 1 June cooling degree days 870 709  
Growing Degree Days 36 (Base 50)    
Moisture  
Dew Point 63 °F    
Average Humidity 54    
Maximum Humidity 84    
Minimum Humidity 24    
Precipitation  
Precipitation 0.89 in 0.04 in 1.03 in (1952)
Month to date precipitation 0.92 0.19  
Year to date precipitation 2.69 3.46  
Snow  
Snow 0.00 in - - ()
Month to date snowfall 0.0  
Snow Depth 0.00 in    
Sea Level Pressure  
Sea Level Pressure 29.80 in    
Wind  
Wind Speed 8 mph (SSE)    
Max Wind Speed 47 mph    
Max Gust Speed 73 mph    
Visibility 8 miles    
Events Rain , Thunderstorm    
T = Trace of Precipitation, MM = Missing Value Source: NWS Daily Summary

Daily Weather History Graph

Daily Weather History Graph

Search for Another Location

Airport or City:

Trip Planner

Search our weather history database for the weather conditions in past years. The results will help you decide how hot, cold, wet, or windy it might be!

Date:

Astronomy

Jul. 05, 2013 Rise Set
Actual Time 5:22 AM MST 7:33 PM MST
Civil Twilight 4:54 AM MST 8:01 PM MST
Nautical Twilight 4:20 AM MST 8:36 PM MST
Astronomical Twilight 3:43 AM MST 9:13 PM MST
Moon 3:21 AM MST (7/5) 5:34 PM MST (7/5)
Length of Visible Light 15h 07m
Length of Day
14h 10m
Waning Crescent, 6% of the Moon is Illuminated
Jul 5
Waning Crescent
Jul 8
New
Jul 15
First Quarter
Jul 22
Full
Jul 29
Last Quarter

Hourly Weather History & Observations

Time (MST) Temp. Heat Index Dew Point Humidity Pressure Visibility Wind Dir Wind Speed Gust Speed Precip Events Conditions
12:53 AM 91.0 °F 88.7 °F 54.0 °F 28% 29.71 in 10.0 mi SE 4.6 mph - N/A   Clear
1:53 AM 91.0 °F 90.0 °F 57.9 °F 33% 29.70 in 10.0 mi SSE 8.1 mph - N/A   Clear
2:53 AM 89.1 °F 87.7 °F 57.0 °F 34% 29.70 in 10.0 mi South 6.9 mph - N/A   Clear
3:53 AM 89.1 °F 88.0 °F 57.9 °F 35% 29.70 in 10.0 mi South 10.4 mph - N/A   Clear
4:53 AM 88.0 °F 86.9 °F 57.9 °F 36% 29.70 in 10.0 mi South 9.2 mph - N/A   Clear
5:53 AM 88.0 °F 87.1 °F 59.0 °F 37% 29.72 in 10.0 mi South 15.0 mph - N/A   Clear
6:53 AM 88.0 °F 87.6 °F 60.1 °F 39% 29.75 in 10.0 mi SSW 11.5 mph - N/A   Clear
7:53 AM 91.0 °F 90.2 °F 59.0 °F 34% 29.76 in 10.0 mi Variable 4.6 mph - N/A   Clear
8:53 AM 91.9 °F 91.2 °F 59.0 °F 33% 29.77 in 10.0 mi SE 4.6 mph - N/A   Clear
9:53 AM 93.9 °F 93.2 °F 59.0 °F 31% 29.76 in 10.0 mi North 5.8 mph - N/A   Clear
10:53 AM 96.1 °F 95.2 °F 57.9 °F 28% 29.75 in 10.0 mi WSW 5.8 mph - N/A   Clear
11:53 AM 99.0 °F 98.1 °F 57.9 °F 25% 29.73 in 10.0 mi Variable 6.9 mph - N/A   Partly Cloudy
12:53 PM 99.0 °F 97.7 °F 55.9 °F 24% 29.69 in 10.0 mi NW 9.2 mph - N/A   Partly Cloudy
1:36 PM 98.1 °F 96.4 °F 55.9 °F 24% 29.86 in 10.0 mi WNW 8.1 mph - N/A Thunderstorm Overcast
1:53 PM 79.0 °F - 66.9 °F 66% 29.74 in 3.0 mi WNW 8.1 mph - 0.00 in Rain , Thunderstorm Heavy Rain
1:55 PM 78.1 °F - 66.0 °F 66% 29.89 in 1.5 mi NE 27.6 mph 42.6 mph 0.00 in Rain , Thunderstorm Heavy Rain
2:01 PM 77.0 °F - 66.0 °F 69% 29.89 in 0.2 mi NNE 44.9 mph 64.4 mph 0.18 in Rain , Thunderstorm Heavy Rain
2:13 PM 78.1 °F - 64.0 °F 62% 29.93 in 1.0 mi ENE 24.2 mph 73.6 mph 0.36 in Rain , Thunderstorm Rain
2:19 PM 80.1 °F 81.9 °F 64.9 °F 60% 29.95 in 1.8 mi East 25.3 mph 46.0 mph 0.37 in Rain , Thunderstorm Rain
2:22 PM 77.0 °F - 66.0 °F 69% 29.94 in 0.5 mi South 29.9 mph 48.3 mph 0.43 in Rain , Thunderstorm Heavy Rain
2:30 PM 78.1 °F - 66.9 °F 68% 29.92 in 0.5 mi South 19.6 mph 48.3 mph 0.73 in Rain , Thunderstorm Heavy Rain
2:36 PM 78.1 °F - 66.9 °F 68% 29.95 in 4.0 mi South 29.9 mph 51.8 mph 0.78 in Rain , Thunderstorm Rain
2:43 PM 77.0 °F - 66.0 °F 69% 29.94 in 1.0 mi SSW 21.9 mph 51.8 mph 0.87 in Rain , Thunderstorm Light Rain
2:53 PM 75.9 °F - 66.0 °F 71% 29.80 in 8.0 mi South 12.7 mph 28.8 mph 0.88 in Rain , Thunderstorm Light Thunderstorms and Rain
3:19 PM 77.0 °F - 66.9 °F 71% 29.95 in 10.0 mi SE 15.0 mph - 0.01 in Rain , Thunderstorm Light Rain
3:53 PM - - - N/A% 29.95 in - North - - 0.01 in Thunderstorm Unknown
4:01 PM - - - N/A% 29.95 in - North - - N/A   Unknown
4:13 PM 73.0 °F - 68.0 °F 84% 29.94 in 10.0 mi SE 10.4 mph - N/A Thunderstorm Thunderstorm
4:28 PM 73.0 °F - 68.0 °F 84% 29.92 in 10.0 mi SE 10.4 mph - N/A   Clear
4:53 PM 73.0 °F - 68.0 °F 84% 29.77 in 10.0 mi SE 10.4 mph - N/A   Clear
5:53 PM 73.0 °F - 68.0 °F 84% 29.70 in 10.0 mi SSW 10.4 mph - N/A   Clear
6:53 PM 79.0 °F - 70.0 °F 74% 29.69 in 10.0 mi Calm Calm - N/A   Clear
7:53 PM 80.1 °F 82.3 °F 66.9 °F 64% 29.69 in 10.0 mi ESE 11.5 mph - N/A   Clear
8:53 PM 79.0 °F - 69.1 °F 72% 29.73 in 10.0 mi South 5.8 mph - N/A   Clear
9:53 PM 78.1 °F - 68.0 °F 71% 29.75 in 10.0 mi SSE 9.2 mph - N/A   Clear
10:53 PM 78.1 °F - 68.0 °F 71% 29.72 in 10.0 mi ESE 6.9 mph - N/A   Clear
11:53 PM 79.0 °F - 66.0 °F 64% 29.71 in 10.0 mi ESE 8.1 mph - N/A   Clear